Vorticity
nan nan nan nan nan nan nan nan nan nan nan nan nan nan nan nan nan nan nan nan nan nan nan nan nan nan nan nan nan nan nan nan nan nan nan nan nan nan nan nan nan nan nan nan nan
nan 7 6 6 7 7 7 7 8 8 8 9 9 8 8 10 14 13 15 14 13 8 6 4 6 7 5 8 11 5 1 5 7 4 -11 12 1 9 17 7 4 -5 12 13 nan
nan 6 6 7 7 7 8 7 8 9 9 9 9 9 9 9 15 19 14 10 7 5 3 4 4 7 5 8 7 7 5 6 -5 5 2 6 12 17 2 -6 9 10 10 3 nan
nan 7 7 7 7 7 7 7 9 9 9 9 9 10 11 9 8 15 11 7 9 3 3 7 6 5 6 8 8 5 10 7 -5 1 6 3 8 12 10 19 15 13 6 5 nan
nan 7 7 7 7 7 7 8 9 9 11 11 10 12 11 8 13 11 11 9 11 6 7 5 6 5 5 7 6 5 4 2 3 3 4 7 9 5 22 23 14 13 7 7 nan
nan 7 7 7 8 8 7 8 9 10 13 13 11 9 9 5 15 11 9 7 8 5 7 4 5 5 2 4 7 12 8 6 2 4 5 3 13 8 -1 13 25 8 6 8 nan
nan 7 7 7 8 8 7 8 10 11 13 14 11 7 8 14 6 10 5 5 4 3 5 7 3 6 6 6 6 8 7 8 12 5 10 3 6 4 5 10 10 9 7 9 nan
nan 7 8 8 8 9 9 9 12 12 9 9 8 7 9 15 9 13 5 5 5 5 5 9 8 5 7 6 11 11 10 8 10 1 21 10 8 8 7 10 7 6 7 8 nan
nan 8 8 8 8 9 9 12 20 13 8 7 6 5 8 7 15 10 5 5 6 8 10 6 12 10 11 7 12 8 11 13 4 11 19 10 8 20 9 13 3 6 9 7 nan
nan 7 7 8 8 8 16 27 18 11 9 3 8 8 16 11 17 10 7 6 6 7 6 9 8 11 8 7 6 4 6 9 1 27 13 -0 7 14 11 15 8 7 11 6 nan
nan 7 7 8 9 10 21 20 14 10 3 1 5 4 3 13 13 12 11 7 5 5 7 7 4 6 8 3 -4 2 5 18 11 -1 3 7 6 7 24 16 1 5 8 6 nan
nan 8 8 9 9 18 15 5 6 5 11 12 3 7 4 7 3 11 8 6 7 4 6 3 6 8 7 4 7 8 8 5 7 10 7 4 7 4 12 8 -0 13 16 8 nan
nan 8 9 9 23 26 6 9 2 14 12 16 25 17 13 3 6 7 10 4 3 5 6 2 10 9 6 8 9 7 7 9 6 10 10 7 9 10 13 4 8 6 15 10 nan
nan 9 6 23 21 11 18 7 7 11 14 27 21 19 16 8 13 13 15 1 2 10 6 6 7 3 11 12 8 9 10 8 6 9 6 5 10 27 18 -0 1 19 8 9 nan
nan 9 16 21 12 5 6 3 11 10 10 23 14 10 16 0 12 28 6 6 5 1 6 9 9 12 6 10 8 6 4 10 11 9 9 7 3 12 10 7 4 11 16 21 nan
nan 7 20 21 10 3 2 11 14 11 13 4 7 5 9 3 -2 18 10 6 5 9 6 8 7 11 12 7 9 9 8 7 6 12 12 12 9 3 12 7 5 10 24 11 nan
nan 12 17 12 1 4 18 16 11 8 4 10 9 9 8 7 10 8 13 5 5 6 10 12 9 5 8 12 11 7 8 7 9 12 7 17 20 5 20 16 13 12 8 9 nan
nan 28 23 7 7 7 9 12 7 9 -3 0 17 16 10 7 7 7 7 8 8 0 7 11 12 13 6 9 10 8 5 4 4 1 2 11 15 15 12 10 14 17 9 8 nan
nan 30 11 13 14 9 13 7 6 -4 5 16 10 1 8 9 13 14 8 9 10 7 -1 4 12 13 14 8 7 7 11 4 6 7 12 7 6 18 2 6 8 9 8 10 nan
nan 15 23 23 11 6 8 8 4 -4 4 14 12 12 9 9 12 10 11 8 12 10 3 1 6 11 19 11 5 8 6 9 9 9 8 11 17 9 0 6 12 9 9 11 nan
nan 11 22 17 5 8 10 8 1 0 11 14 8 8 7 13 15 11 3 11 14 11 9 8 5 10 10 11 8 9 5 5 11 12 7 6 15 13 7 3 6 9 12 10 nan
nan 14 13 4 4 8 10 3 1 15 11 3 2 5 10 12 11 13 12 15 18 17 13 6 11 9 12 9 8 8 14 8 7 6 5 13 17 12 2 10 13 18 11 12 nan
nan 17 9 5 6 7 8 9 10 8 6 11 9 7 7 8 10 10 7 5 25 14 15 18 4 9 10 13 21 10 8 10 0 4 7 10 21 16 3 11 22 10 8 14 nan
nan 15 11 9 7 8 12 16 10 9 14 8 6 8 9 11 6 6 10 9 9 3 5 13 14 12 6 1 5 16 7 9 8 10 9 7 6 1 5 7 13 17 20 13 nan
nan 1 13 18 14 9 6 6 17 18 8 5 10 12 11 8 12 9 4 11 6 8 4 5 9 11 6 -1 1 14 15 10 9 5 1 11 24 11 6 1 0 12 16 9 nan
nan 7 7 10 7 18 23 12 6 12 12 7 9 10 8 9 10 10 9 9 12 14 7 7 10 9 9 11 13 9 9 13 15 9 8 11 15 16 5 5 4 10 14 8 nan
nan nan nan nan nan nan nan nan nan nan nan nan nan nan nan nan nan nan nan nan nan nan nan nan nan nan nan nan nan nan nan nan nan nan nan nan nan nan nan nan nan nan nan nan nan
CAPE
0 0 0 0 0 0 0 0 0 2 2 2 2 1 1 0 0 0 0 0 0 745 384 0 0 0 0 0 0 0 31 12 39 3 234 99 18 136 299 421 135 91 1132 2326 2065
0 0 0 0 0 0 0 0 1 3 1 3 1 0 1 0 0 0 0 156 277 234 0 0 0 0 0 0 0 0 71 2 125 113 137 21 43 67 386 101 13 0 10 2082 1993
0 0 0 0 0 0 0 0 1 2 2 1 1 0 0 0 0 0 151 183 166 29 0 0 0 0 0 0 0 2 25 194 177 198 21 16 4 95 394 204 92 127 73 1911 2010
0 0 0 0 0 0 0 0 0 1 2 1 1 0 0 0 0 55 9 40 28 0 0 0 0 0 0 0 0 0 1 159 128 152 51 76 9 0 87 251 436 32 706 1888 2002
0 0 0 0 0 0 0 0 0 1 0 1 1 0 0 0 0 0 63 5 0 0 0 0 0 0 0 0 0 0 42 31 147 163 166 56 0 88 653 415 179 530 997 1950 2039
0 0 0 0 0 0 0 0 0 0 1 1 0 0 0 0 0 0 0 0 0 0 0 0 0 0 0 0 0 0 72 131 18 162 97 64 50 114 178 247 1539 1981 1925 1919 2007
0 0 0 0 0 0 0 0 0 0 0 0 0 0 0 0 0 0 0 0 0 0 0 0 0 0 0 0 0 0 0 86 141 112 249 0 252 21 4 3 1008 1742 1812 1833 2223
1 0 0 0 0 0 0 0 0 0 0 0 0 0 0 0 0 0 0 0 0 0 0 0 0 0 0 0 1 101 30 74 160 197 277 16 142 116 22 1 1233 1497 1668 1670 1954
0 0 0 0 0 0 0 0 0 1 0 0 0 0 0 0 0 0 0 0 0 0 0 0 0 0 0 0 10 70 76 4 30 210 115 22 398 787 153 177 1104 1211 1588 1431 1772
1 1 0 0 0 0 0 0 0 0 0 0 0 0 0 0 0 0 0 0 0 0 0 0 0 0 0 16 201 18 99 45 0 0 148 17 0 500 231 454 763 1189 1451 1603 1746
0 1 1 0 0 0 0 0 0 12 0 0 0 0 0 0 0 0 0 0 0 0 0 0 0 0 0 19 43 81 150 118 105 242 146 19 0 113 479 349 180 1055 1016 1503 1639
0 1 1 1 0 0 0 0 0 0 0 0 0 0 0 0 0 0 0 0 0 0 0 0 0 0 0 0 0 70 28 94 168 170 90 6 0 0 320 98 76 118 925 1440 1317
1 2 1 0 0 0 0 0 0 0 0 0 0 0 0 0 0 0 0 0 0 0 0 0 0 0 0 0 0 0 1 24 68 2 102 0 26 103 109 7 75 148 662 746 1260
1 1 0 1 0 0 0 0 0 0 0 0 0 0 0 0 0 0 0 0 0 0 0 0 0 0 0 0 0 0 0 0 2 0 3 5 112 765 290 176 8 5 382 496 1089
0 0 0 1 0 0 0 0 0 0 0 0 0 0 0 0 0 0 0 0 0 0 0 0 0 0 0 0 0 0 0 0 0 0 0 0 0 703 609 121 0 0 1 489 1002
0 0 0 0 0 0 0 0 0 0 0 0 0 0 0 0 0 0 0 0 0 0 0 0 0 0 0 0 0 0 0 0 0 0 0 0 0 138 119 360 7 11 401 1151 1849
0 0 0 0 0 0 0 0 0 0 0 0 0 0 0 0 0 0 0 0 0 0 0 0 0 0 0 0 0 0 0 0 0 0 0 144 15 411 590 485 288 543 943 1683 2866
0 0 0 0 0 0 0 0 0 0 0 0 0 0 0 0 0 0 0 0 0 0 0 10 13 0 0 0 0 0 0 0 59 11 94 327 54 125 867 653 348 692 1082 1719 2559
0 0 0 0 0 0 0 0 0 0 0 0 0 0 0 0 0 0 0 0 0 0 68 0 21 53 0 0 0 0 0 0 0 0 32 258 193 127 244 540 813 887 1068 1624 2539
0 0 0 0 0 0 0 0 0 0 0 0 0 0 0 0 0 0 0 0 0 0 0 19 26 0 4 0 0 0 0 0 0 0 33 154 236 862 810 662 1019 1003 1017 1554 2713
0 0 0 0 0 0 0 0 0 0 0 0 0 0 0 0 0 0 0 0 0 0 0 0 1 1 8 0 0 0 0 0 0 2 40 242 346 642 212 270 758 1192 1182 1613 2382
0 0 0 0 0 0 0 0 0 0 0 0 0 0 0 0 0 0 0 0 0 0 0 0 0 1 6 0 0 0 0 0 0 233 100 249 409 139 144 45 402 1012 1612 1870 2222
0 0 0 0 0 0 0 0 0 0 0 0 0 0 0 0 0 0 0 0 1 0 21 18 3 0 0 8 2 0 0 0 32 262 325 126 241 189 131 166 669 1367 1768 2264 2475
0 0 0 0 0 0 0 0 0 0 0 0 0 0 0 0 0 0 0 0 0 0 909 85 46 9 0 57 68 12 0 0 27 29 25 33 518 318 241 368 524 966 1680 2707 2781
0 0 14 11 0 0 0 0 0 0 0 0 0 0 0 0 0 0 0 0 0 0 0 47 576 98 0 24 56 66 40 3 0 21 21 116 192 427 313 189 12 96 2488 2680 2730
4 1 2 0 0 8 0 0 0 0 0 0 0 0 0 0 0 0 0 0 0 15 0 24 367 133 48 26 35 55 62 16 1 0 23 49 176 63 0 0 0 90 2450 2519 2286
0 0 2 0 0 4 9 14 0 0 0 0 0 0 0 0 0 0 0 19 31 165 106 150 312 649 144 32 38 100 70 85 13 5 15 214 217 61 58 87 77 1656 2033 2018 2109